Reflectivity
-20 -1 12 -11 -20 -20 8 -6 -20 -20 -20 -20 -20 -20 -20 -20 -20 -20 -20 -20 -20 -20 -20 -20 -20 -20 -20 -20 -20 -20 -20 -20 -20 -20 -20 -20 -20 -20 -20 -20 -20 -20 -20 -20 -20 -20 -20
31 16 30 25 2 9 21 13 -8 -20 -18 -20 -20 -20 -20 -20 -20 -20 -20 -20 -20 -20 -20 -20 -20 -20 -20 -20 -20 -20 -20 -20 -20 -20 -20 -20 -20 -20 -20 -20 -20 -20 -20 -20 -20 -20 -20
-20 -3 4 20 30 27 21 23 -4 -20 -20 -20 -20 -20 -20 -20 -20 -20 -20 -20 -20 -20 -20 -20 -20 -20 -20 -20 -20 -20 -20 -20 -20 -20 -20 -20 -20 -20 -20 -20 -20 -20 -20 -20 -20 -20 -20
20 20 18 12 24 21 22 -8 -20 -20 -20 -20 -20 -20 -20 -20 -20 -20 -20 -20 -20 -20 -20 -20 -20 -20 -20 -20 -20 -20 -20 -20 -20 -20 -20 -20 -20 -20 -20 -20 -20 -20 -20 -20 -20 -20 -20
14 19 22 20 12 17 14 18 -8 -20 -7 -20 -20 -20 -20 -20 -20 -20 -20 -20 -20 -20 -20 -20 -20 -20 -20 -20 -20 -20 -20 -20 -20 -20 -20 -20 -20 -20 -20 -20 -20 -20 -20 -20 -20 -20 -20
1 17 21 17 25 13 22 6 -16 -9 -16 -20 -20 -20 -20 -20 -20 -20 -20 -20 -20 -20 -20 -20 -20 -20 -20 -20 -20 -20 -20 -20 -20 -20 -20 -20 -20 -20 -20 -20 -20 -20 -20 -20 -20 -20 -20
20 19 6 20 24 4 -2 -3 -1 -8 -7 -20 -20 -20 -20 -20 -20 -20 -20 -20 -20 -20 -20 -20 -20 -20 -20 -20 -20 -20 -20 -20 -20 -20 -20 -20 -20 -20 -20 -20 -20 -20 -20 -20 -20 -20 -20
-7 22 -20 17 24 25 20 18 -2 14 -5 -18 -20 -20 -20 -20 -20 -20 -20 -20 -20 -20 -20 -20 -20 -20 -20 -20 -20 -20 -20 -20 -20 -20 -20 -20 -20 -20 -20 -20 -20 -20 -20 -20 -20 -20 -20
-17 -4 -20 -20 -20 -20 -19 8 -19 -6 18 -1 3 -11 -20 -20 -20 -20 -20 -20 -20 -20 -20 -20 -20 -20 -20 -20 -20 -20 -20 -20 -20 -20 -20 -20 -20 -20 -20 -20 -20 -20 -20 -20 -20 -20 -20
4 -14 -19 -20 -20 -20 -20 -20 -20 -20 -17 10 -2 9 5 -20 -20 -20 -20 -20 -20 -20 -20 -20 -20 -20 -20 -20 -20 -20 -20 -20 -20 -20 -20 -20 -20 -20 -20 -20 -20 -20 -20 -20 -20 -20 -20
-18 5 -20 -11 -19 -11 -17 -20 -20 -20 -20 -20 -20 -18 -13 -20 -20 -20 -20 -20 -20 -20 -20 -20 -20 -20 -20 -20 -20 -20 -20 -20 -20 -20 -20 -20 -20 -20 -20 -17 -17 -20 -20 -20 -20 -20 -20
13 10 -4 8 -3 -20 -14 -4 -4 -20 -20 -20 -20 -20 -15 -20 -20 -20 -20 -20 -20 -20 -20 -20 -20 -20 -20 -20 -20 -20 -20 -20 -20 -20 -20 -20 -20 -20 -20 -20 -20 -20 -20 -20 -20 -20 -20
-20 -1 15 -16 10 -11 -19 -19 -15 -10 -20 -20 -20 -20 -20 -20 -20 -20 -20 -20 -20 -20 -20 -20 -20 -20 -20 -20 -20 -20 -20 -20 -19 -13 -20 -20 -20 -20 -20 -20 -20 -20 -20 -20 -20 -20 -20
-20 -20 7 17 16 -20 -20 -20 -20 -20 -20 -20 -20 -20 -20 -20 -20 -20 -20 -20 -20 -20 -20 -20 -20 -20 -20 -20 -20 -20 -20 -20 -20 -20 -20 -20 -20 -20 -20 -20 -20 -20 -20 -20 -12 -20 -20
-20 0 -1 18 15 9 -20 -20 -20 -20 -20 -20 -20 -16 -6 -19 -5 -20 -20 -20 -20 -20 -20 -20 -20 -20 -20 -20 -20 -20 -20 -20 -20 -20 -20 -20 -20 -20 -20 -20 -20 -20 -20 -20 -20 -20 -20
-20 -20 -12 -7 24 18 -20 -20 -20 -20 -20 -20 -18 12 -7 6 -18 3 -17 -20 -20 -20 -20 -20 -20 -20 -20 -20 -20 -20 -20 -20 -20 -20 -20 -20 -20 -20 -20 -20 -20 -20 -20 -20 -20 7 3
-6 -15 -10 -20 21 19 13 -1 -20 -20 -20 -20 5 16 7 -20 12 11 -6 -20 -20 -20 -20 -20 -20 -8 -20 -19 -5 -20 -20 -20 -20 -20 -20 -20 -20 -20 -20 -20 -20 -20 -20 -17 -9 -14 15
-20 -20 -20 -20 21 21 14 14 -20 -20 -20 -20 9 13 22 16 14 -4 3 -20 -20 -20 -20 -20 -20 -20 -20 -20 -20 -20 -20 -20 -20 -20 -20 -20 -20 -20 -20 -20 -20 -20 -20 -20 -18 -19 21
-20 -3 -20 -17 18 20 21 15 15 -19 -20 -20 12 4 16 18 9 1 -20 -20 -20 -20 -20 -20 -20 -20 -20 -20 -20 -20 -20 -20 -20 -20 -20 -20 -20 -20 -20 -16 -19 -20 -20 -20 -20 -20 -20
-20 -20 4 -12 16 22 15 39 10 9 -20 10 -1 17 22 21 -10 -20 -18 -20 -20 -20 -20 -20 -20 -20 -20 -20 -20 -20 -20 -20 -20 -20 -20 -20 -20 -20 -20 -20 -20 -20 -20 -20 -12 23 18
4 -20 -20 -11 -18 10 24 35 9 20 -11 17 -13 7 -13 -11 2 -20 -20 -20 -20 -20 -20 -20 -20 -20 -20 -20 -20 -20 -20 -20 -20 -20 -20 -20 -20 -20 -20 -20 -20 -20 -20 -20 -20 -20 6
4 -20 -20 -20 -20 16 37 34 38 23 24 20 -20 9 6 -20 -20 -20 -2 -20 10 12 -11 -20 -20 -20 -20 -20 -20 -20 -20 -20 -20 -20 -20 -20 -8 -20 -20 -20 -20 -20 -20 -20 -20 -20 -20
-11 -20 -20 -20 -20 20 9 41 30 22 30 17 -7 -20 11 -16 1 -18 -20 -20 -17 -20 -20 -20 -20 -20 -20 -20 -20 -20 -20 -20 -20 -20 -20 -16 7 11 -20 -4 6 4 -20 -20 -20 -20 -20
-20 -20 -20 -20 -20 8 18 36 39 31 26 -14 0 -20 -1 -7 -8 -9 -20 -20 -20 -20 -20 -20 -20 -20 -20 -20 -20 -20 -20 -20 -20 -20 -20 -20 -5 11 11 11 12 -20 -20 -20 -20 -20 2
-20 -20 -20 -20 -20 -18 18 28 40 32 6 9 -1 -3 14 13 -20 -20 -17 -20 -20 -20 -20 -20 -20 -20 -13 -20 -6 -13 -20 -20 -20 -20 -20 -20 9 15 16 12 -17 -20 -20 -2 5 -11 17
-20 -20 -20 -11 -20 -19 11 35 41 39 13 2 21 17 18 19 19 -20 -19 -20 -20 -20 -18 -20 -20 -20 -20 14 -13 4 -18 -20 -20 8 -19 -20 -8 23 6 15 4 -20 4 6 12 13 -20
8 -20 5 -20 -20 -20 -12 22 33 37 14 2 21 21 22 -18 -20 -20 -20 5 -20 -20 -20 -19 -20 -12 -19 -1 17 6 4 -20 -15 -20 -5 -3 3 10 17 11 -10 -20 7 26 15 -19 -20
-9 -17 -13 -20 -20 -20 33 41 39 36 28 6 18 15 21 -9 -9 -20 -20 -20 -16 8 19 18 10 20 -13 22 10 -1 6 5 7 -20 16 18 14 10 7 11 9 -20 -20 5 -5 -20 -20
17 8 -6 -20 19 17 32 36 34 29 25 9 16 16 28 24 -12 -16 -20 -20 -8 2 3 -3 19 -20 -0 -14 -1 18 25 11 22 20 11 16 11 10 -17 -1 3 12 -20 -20 -20 -20 -20
Wind_Speed
15 14 13 12 10 9 8 5 3 2 2 5 6 6 8 9 9 10 9 10 10 11 9 12 16 20 14 11 11 8 6 9 11 11 12 11 15 11 11 10 10 14 12 10 6 7 7
14 14 13 10 7 5 5 4 3 2 3 5 7 6 7 8 9 9 10 10 11 10 9 11 13 19 12 12 5 6 6 8 12 8 11 7 10 14 12 13 10 13 10 14 14 12 10
16 12 12 11 8 6 6 5 2 1 0 4 4 6 6 8 9 10 11 10 11 11 9 11 12 10 13 20 13 11 10 9 10 10 8 9 7 9 14 15 9 7 13 15 16 16 13
8 10 10 8 8 8 6 6 6 6 3 3 3 4 5 7 9 10 11 12 12 12 10 11 11 11 10 13 7 11 13 13 12 9 10 8 8 12 14 12 15 16 16 15 16 19 11
8 7 6 8 7 6 8 7 6 5 5 4 5 6 6 7 10 10 13 14 13 14 11 11 10 11 10 2 8 1 5 7 7 8 6 6 8 11 12 11 12 14 14 16 11 13 10
11 10 8 6 8 9 10 7 7 6 6 6 7 7 6 8 9 10 14 14 11 10 13 11 10 8 8 7 5 7 8 5 7 7 9 9 7 11 11 11 13 15 16 12 8 8 12
11 11 11 10 10 9 9 7 7 5 5 7 8 8 7 9 10 11 13 11 8 7 9 9 2 10 8 2 8 11 8 7 10 10 13 12 10 12 16 16 11 12 13 16 17 19 20
12 13 13 13 13 13 11 8 8 4 5 6 9 8 8 9 10 11 9 8 8 5 10 16 21 22 18 10 9 12 4 7 12 13 14 13 14 17 16 13 10 11 16 18 19 18 18
13 14 14 14 14 14 12 11 8 6 3 4 8 8 7 8 10 7 11 11 8 7 8 12 14 12 9 10 13 13 10 11 14 13 14 17 15 3 8 12 14 15 15 17 20 19 18
14 14 14 14 14 13 13 11 9 9 4 3 6 7 4 6 7 7 7 3 5 6 6 7 7 3 4 5 6 13 12 10 9 13 14 14 15 13 10 16 13 17 14 13 15 13 13
12 15 16 15 15 14 12 10 9 8 7 3 6 7 6 2 10 3 8 7 5 3 6 8 8 5 4 8 3 5 2 8 14 11 5 8 3 6 7 10 9 10 13 11 13 15 15
13 16 17 16 15 14 13 12 10 10 8 5 6 7 6 7 6 4 5 5 3 4 10 6 7 8 9 10 4 3 3 2 3 10 14 15 16 14 8 10 10 11 11 15 14 12 14
12 15 18 17 16 15 14 13 11 10 8 6 5 9 7 7 2 3 2 3 3 7 3 4 5 8 12 9 10 9 9 8 6 4 9 15 18 17 15 11 12 12 9 5 5 8 13
11 13 17 17 18 16 15 14 12 10 8 7 4 8 8 9 3 2 4 5 9 6 13 5 3 3 9 4 8 10 9 10 13 14 11 12 13 14 15 14 12 13 14 10 16 12 14
13 13 16 19 19 18 17 15 14 11 9 6 5 7 6 7 5 5 6 7 8 9 5 3 3 6 8 10 3 7 11 13 14 5 7 7 10 3 3 5 9 10 12 16 15 15 13
14 14 15 18 21 20 18 17 16 13 11 10 6 5 7 9 8 6 9 12 11 3 3 4 10 11 11 13 10 7 8 4 6 6 6 9 12 13 14 11 14 15 13 11 8 11 16
15 14 15 17 21 21 20 20 18 15 13 11 5 4 4 10 5 7 11 12 17 4 1 4 7 8 10 12 8 9 7 4 2 10 6 11 12 13 15 14 14 12 15 14 14 8 12
15 15 15 16 19 22 22 22 20 18 14 9 3 3 7 8 8 8 13 16 7 5 6 5 5 5 5 6 7 11 11 12 7 6 11 10 5 8 17 17 18 16 17 16 8 14 10
16 16 17 17 19 22 23 25 23 22 20 8 3 2 4 9 9 11 14 20 16 8 11 9 7 6 5 4 3 6 9 11 9 8 4 8 5 9 12 15 20 16 15 13 15 13 17
18 17 17 17 18 23 25 25 27 25 24 9 4 4 4 5 11 14 16 18 19 8 14 12 6 7 6 6 6 4 7 8 5 8 8 4 10 14 11 14 16 17 19 19 14 6 8
19 19 16 18 19 19 25 28 28 26 26 8 5 6 8 6 9 16 17 12 18 12 10 10 10 11 9 4 9 13 14 15 10 9 10 8 15 15 18 19 19 20 22 21 21 18 13
20 19 19 17 19 20 21 27 28 28 24 8 6 4 8 9 16 18 14 11 15 17 11 14 13 10 11 14 10 6 10 13 11 6 10 11 17 15 18 16 19 22 18 17 23 22 22
21 20 20 19 18 22 20 25 32 31 20 8 9 9 3 8 12 13 13 16 12 8 10 11 7 11 8 7 8 8 8 9 9 11 12 15 12 10 18 15 19 20 11 16 22 21 21
23 22 22 22 20 20 23 24 32 30 26 6 7 6 6 7 10 14 17 17 14 11 13 5 9 8 8 5 4 8 11 13 14 16 16 17 15 10 13 15 20 9 15 20 21 20 16
23 24 24 23 21 21 23 24 35 32 31 9 7 7 5 8 11 13 17 10 13 12 11 12 8 7 1 7 3 8 10 16 22 23 22 18 14 7 8 12 18 22 21 18 5 10 22
23 24 24 23 20 21 24 25 28 29 31 12 6 4 3 3 8 11 11 13 10 9 11 14 11 6 7 4 3 6 7 12 9 6 19 19 17 12 10 8 10 8 5 16 2 8 8
24 23 23 24 20 19 29 29 35 33 27 12 3 5 4 3 2 3 7 7 3 7 6 9 11 11 11 4 6 9 13 17 16 19 11 10 13 14 11 10 11 14 12 15 7 2 4
23 22 22 22 20 18 19 15 30 28 25 17 4 3 3 3 4 6 4 7 5 5 8 3 3 6 2 6 3 7 8 10 11 16 14 7 9 8 9 9 13 11 7 2 4 2 4
20 21 22 22 22 20 32 32 30 28 25 21 5 3 4 3 4 6 10 9 10 8 3 4 4 2 3 2 3 5 4 4 9 5 5 7 11 8 9 3 11 8 4 6 1 2 2
Wind_Direction
225 225 226 222 207 193 202 200 207 257 311 309 310 321 332 328 319 310 306 300 301 305 322 327 326 321 330 325 293 146 202 240 268 274 296 319 305 329 288 330 304 275 282 313 293 271 273
227 225 214 173 164 188 193 185 204 231 299 303 306 326 341 329 320 310 307 306 298 296 318 317 325 320 318 285 359 321 320 301 270 303 306 313 333 327 292 275 273 311 297 285 285 272 245
224 196 161 152 165 200 193 195 174 220 159 299 321 338 344 339 324 314 299 292 290 294 304 305 315 310 282 257 297 294 284 277 292 290 297 318 323 302 318 299 344 281 276 272 260 234 245
116 137 138 147 169 189 200 178 172 168 185 233 296 317 335 332 322 311 295 288 290 283 285 282 291 291 265 300 318 294 268 260 256 260 273 292 298 282 270 279 288 266 263 267 258 220 202
125 126 129 141 176 187 197 196 172 210 200 249 284 306 324 325 320 314 298 279 272 268 259 270 270 221 271 193 238 245 289 294 270 232 259 300 287 264 279 250 275 246 251 266 270 170 159
160 162 178 193 218 198 211 195 198 203 256 255 291 294 321 321 313 312 304 281 276 284 249 252 245 275 253 262 12 326 285 281 267 252 261 238 247 250 240 243 256 277 297 288 288 194 201
196 194 198 203 200 207 206 198 204 213 259 269 290 281 301 318 318 317 316 277 235 194 213 249 247 253 294 214 315 259 248 270 247 246 254 247 243 247 254 263 317 314 293 290 293 302 305
207 203 207 201 193 198 202 199 224 214 273 306 302 269 285 313 316 315 296 270 22 358 292 269 258 262 268 297 277 273 149 248 230 240 246 241 245 261 287 311 319 299 290 285 287 283 277
212 206 209 207 203 201 202 198 204 210 227 289 301 282 287 296 323 288 249 293 355 334 261 274 259 245 266 253 251 258 199 240 256 258 251 257 264 318 293 293 292 281 281 286 289 299 299
216 212 207 209 203 202 204 201 195 197 190 320 321 294 237 306 284 260 248 28 7 321 275 226 172 198 193 234 252 239 279 274 240 256 265 272 277 283 307 287 283 278 284 325 318 313 287
228 214 205 203 203 201 199 199 206 193 191 210 284 291 237 228 311 277 18 343 343 263 282 105 128 90 138 217 29 151 356 251 244 246 223 243 237 250 257 268 301 300 319 307 298 289 291
245 216 209 204 202 199 198 195 200 198 206 221 259 259 203 236 239 308 350 327 289 237 242 175 132 181 177 205 229 120 197 252 326 256 267 264 284 291 274 277 284 299 287 280 266 261 259
253 236 216 203 202 198 198 201 198 197 205 204 266 191 209 281 324 58 228 218 215 229 58 175 216 187 205 175 197 205 187 196 219 224 242 244 242 248 239 251 263 245 257 276 260 247 259
265 244 225 211 207 198 197 198 196 196 205 203 215 209 220 251 232 189 226 200 228 267 243 47 352 217 221 183 225 207 241 240 227 246 276 280 281 264 201 204 269 278 232 236 281 300 305
272 259 239 224 207 201 194 191 190 192 186 197 181 220 240 221 233 222 222 229 210 226 300 182 177 211 224 234 318 213 250 258 268 251 239 290 283 110 105 268 275 269 260 261 275 275 279
269 261 250 235 217 201 193 186 187 186 175 181 205 229 244 195 195 221 224 233 226 238 307 251 218 205 211 214 194 238 242 300 284 293 318 283 286 281 298 263 243 247 275 293 285 283 271
277 268 257 240 224 204 192 186 183 177 176 188 233 236 134 163 182 214 223 226 229 170 270 268 248 251 247 267 270 222 261 278 220 277 215 285 281 275 276 247 256 278 230 239 261 274 281
274 270 263 250 228 207 192 186 179 171 172 175 200 250 155 174 203 219 231 227 290 233 191 246 282 284 267 272 276 263 273 279 14 316 299 277 294 279 267 284 293 281 277 283 271 271 268
263 268 266 254 234 210 199 185 178 171 174 176 196 243 183 209 217 228 235 232 245 238 218 223 226 228 238 254 306 344 281 292 318 313 3 350 281 265 263 244 239 250 263 288 293 284 274
262 262 264 257 239 216 199 192 177 174 187 216 188 198 210 205 253 247 221 237 223 208 264 241 237 250 218 239 223 219 266 266 250 282 80 342 270 270 279 300 309 297 292 288 268 264 304
255 256 265 258 239 228 207 192 178 177 194 198 204 225 173 195 226 243 257 223 230 209 214 250 236 231 222 216 256 259 258 260 258 239 264 267 264 274 277 286 292 291 290 296 299 286 257
253 250 253 259 251 225 224 188 181 179 189 207 169 211 162 239 207 217 240 243 237 224 194 224 233 235 223 238 194 259 242 235 257 269 259 258 262 259 267 273 270 270 261 255 265 274 277
255 250 247 252 253 234 211 208 183 182 174 200 217 226 216 236 182 205 221 226 241 229 239 222 250 238 256 255 297 323 331 299 264 276 275 272 268 274 271 272 279 266 248 240 255 263 265
251 249 245 241 246 246 222 218 181 180 190 214 201 213 227 243 213 203 207 228 212 233 249 221 242 262 276 7 345 294 273 265 257 253 251 251 262 266 276 279 268 270 264 262 265 270 248
248 246 243 238 246 246 225 217 174 179 193 217 200 203 211 227 223 229 200 210 218 216 229 262 243 236 53 39 300 268 255 247 244 241 234 231 246 260 253 256 280 280 280 293 249 294 304
248 241 237 232 254 239 221 190 174 186 197 206 239 212 200 215 226 223 202 210 214 216 221 224 222 272 274 127 225 248 255 285 256 195 221 214 219 231 256 269 273 317 30 303 246 238 54
245 237 232 231 248 239 212 209 180 189 193 193 212 218 214 221 204 252 216 227 220 269 250 257 240 221 220 171 220 244 250 259 258 265 251 198 202 223 228 251 266 284 129 250 264 62 121
237 232 227 228 240 211 203 179 161 183 192 193 178 200 225 203 236 234 205 231 221 244 239 352 224 189 87 204 211 237 254 260 275 263 259 210 196 205 226 243 260 254 155 232 108 114 107
234 226 239 233 215 202 188 183 181 185 188 188 197 153 227 242 359 337 311 290 286 304 2 247 292 60 51 222 249 304 281 315 296 269 264 209 219 218 213 219 3 352 38 91 43 173 146